FW0782 Weather Reports


time (UTC)temp
F
wind
direction
speed
knots
gust
knots
rain 1hr
in
rain 24hr
in
rain mn
in
humidity
%
barometer
mb
20260506185022 54 56 2.6 4.3 0.00 0.00 0.00 65 1011.3
20260506184721 55 55 2.6 4.3 0.00 0.00 0.00 65 1011.6
20260506184221 55 55 1.7 5.2 0.00 0.00 0.00 65 1011.5
20260506184022 55 55 1.7 5.2 0.00 0.00 0.00 65 1011.2
20260506183721 55 55 2.6 5.2 0.00 0.00 0.00 66 1011.5
20260506183221 55 55 4.3 7.8 0.00 0.00 0.00 67 1011.5
20260506183021 55 56 5.2 7.8 0.00 0.00 0.00 68 1011.2
20260506181724 56 15 3.5 6.1 0.00 0.00 0.00 72 1011.2
20260506181220 56 53 4.3 7.0 0.00 0.00 0.00 71 1011.1
20260506180721 56 54 4.3 8.7 0.00 0.00 0.00 71 1011.0
20260506180221 56 53 5.2 7.0 0.00 0.00 0.00 70 1010.9
20260506180021 56 32 4.3 7.0 0.00 0.00 0.00 70 1010.5
20260506175721 56 349 5.2 10.4 0.00 0.00 0.00 69 1010.8
20260506175221 56 44 4.3 7.8 0.00 0.00 0.00 69 1010.8
20260506175021 57 16 4.3 7.8 0.00 0.00 0.00 70 1010.5
20260506174721 57 10 5.2 11.3 0.00 0.00 0.00 70 1010.8
20260506174021 56 26 3.5 7.0 0.00 0.00 0.00 69 1010.4
20260506173721 57 55 5.2 8.7 0.00 0.00 0.00 69 1010.7
20260506173221 57 20 4.3 7.8 0.00 0.00 0.00 68 1010.6
20260506173021 57 54 4.3 7.8 0.00 0.00 0.00 69 1010.3
20260506172221 57 2 4.3 10.4 0.00 0.00 0.00 70 1010.6
20260506172021 57 5 4.3 8.7 0.00 0.00 0.00 70 1010.3
20260506171720 57 21 2.6 12.2 0.00 0.00 0.00 70 1010.5
20260506171221 56 1 5.2 11.3 0.00 0.00 0.00 70 1010.5
20260506171021 56 1 5.2 11.3 0.00 0.00 0.00 70 1010.2
20260506170721 56 11 5.2 10.4 0.00 0.00 0.00 70 1010.4
20260506165720 57 8 4.3 10.4 0.00 0.00 0.00 69 1010.5
20260506165021 57 354 6.1 10.4 0.00 0.00 0.00 69 1010.1
20260506164720 57 37 2.6 6.1 0.00 0.00 0.00 68 1010.3
20260506164221 57 347 4.3 8.7 0.00 0.00 0.00 68 1010.3
20260506164020 57 39 3.5 7.0 0.00 0.00 0.00 68 1010.0
20260506163721 57 28 6.1 15.6 0.00 0.00 0.00 69 1010.3
20260506163021 58 14 4.3 13.0 0.00 0.00 0.00 69 1009.9
20260506162220 58 1 5.2 13.0 0.00 0.00 0.00 70 1010.2
20260506161721 58 351 8.7 18.2 0.00 0.00 0.00 70 1010.2
20260506161221 57 355 6.1 13.0 0.00 0.00 0.00 70 1010.3
20260506161020 57 351 7.8 13.0 0.00 0.00 0.00 70 1009.9
20260506160721 57 356 6.1 11.3 0.00 0.00 0.00 71 1010.3
20260506160221 57 351 6.1 13.0 0.00 0.00 0.00 69 1010.3
20260506160022 58 351 7.0 13.0 0.00 0.00 0.00 69 1009.9
20260506155720 58 5 5.2 10.4 0.00 0.00 0.00 70 1010.3
20260506155221 58 355 5.2 10.4 0.00 0.00 0.00 71 1010.3
20260506155021 58 346 6.1 10.4 0.00 0.00 0.00 72 1009.9
20260506154720 59 12 6.1 13.0 0.00 0.00 0.00 71 1010.3
20260506154221 58 7 6.1 12.2 0.00 0.00 0.00 70 1010.3
20260506154022 58 11 4.3 7.0 0.00 0.00 0.00 70 1010.0
20260506153721 59 2 6.1 13.0 0.00 0.00 0.00 70 1010.3
20260506153221 59 3 5.2 10.4 0.00 0.00 0.00 70 1010.3
20260506153021 59 357 5.2 8.7 0.00 0.00 0.00 70 1009.9
20260506152721 59 351 7.8 17.4 0.00 0.00 0.00 70 1010.3
20260506152221 59 349 6.1 13.9 0.00 0.00 0.00 72 1010.3
20260506152021 59 347 7.8 13.9 0.00 0.00 0.00 71 1010.0
20260506151720 59 343 6.1 12.2 0.00 0.00 0.00 72 1010.2
20260506151221 59 352 7.0 12.2 0.00 0.00 0.00 71 1010.3
20260506151021 59 342 7.8 13.0 0.00 0.00 0.00 71 1010.0
20260506150720 59 342 7.0 12.2 0.00 0.00 0.00 72 1010.2
20260506150220 59 341 5.2 13.0 0.00 0.00 0.00 70 1010.2
20260506150020 59 341 6.1 10.4 0.00 0.00 0.00 70 1009.9
20260506145720 59 339 5.2 11.3 0.00 0.00 0.00 71 1010.2
20260506145221 59 358 6.1 12.2 0.00 0.00 0.00 68 1010.3
20260506144721 59 54 4.3 10.4 0.00 0.00 0.00 69 1010.2
20260506144220 59 9 5.2 12.2 0.00 0.00 0.00 68 1010.2
20260506144021 59 354 7.8 12.2 0.00 0.00 0.00 69 1010.0
20260506143720 59 30 5.2 13.0 0.00 0.00 0.00 68 1010.2
20260506143220 59 27 7.0 12.2 0.00 0.00 0.00 71 1010.2
20260506142721 59 355 4.3 10.4 0.00 0.00 0.00 69 1010.1
20260506142220 60 344 7.0 13.0 0.00 0.00 0.00 72 1010.1
20260506141720 59 27 5.2 12.2 0.00 0.00 0.00 70 1010.1
20260506141220 59 2 6.1 13.0 0.00 0.00 0.00 70 1010.2
20260506141021 59 7 7.0 11.3 0.00 0.00 0.00 69 1009.8
20260506140220 59 357 7.0 13.9 0.00 0.00 0.00 71 1010.3
20260506135221 59 337 6.1 11.3 0.00 0.00 0.00 71 1010.2
20260506135021 59 15 6.1 10.4 0.00 0.00 0.00 70 1009.9
20260506134720 59 354 6.1 12.2 0.00 0.00 0.00 73 1010.2
20260506134220 59 353 5.2 12.2 0.00 0.00 0.00 72 1010.2
20260506134020 59 1 5.2 10.4 0.00 0.00 0.00 70 1009.9
20260506133720 59 345 7.0 10.4 0.00 0.00 0.00 72 1010.3
20260506133220 58 357 5.2 10.4 0.00 0.00 0.00 71 1010.3
20260506133020 59 356 3.5 6.1 0.00 0.00 0.00 73 1010.0
20260506132720 59 352 5.2 10.4 0.00 0.00 0.00 73 1010.3
20260506132221 59 338 7.8 12.2 0.00 0.00 0.00 70 1010.3
20260506132020 59 346 7.8 12.2 0.00 0.00 0.00 73 1009.9
20260506131721 59 8 5.2 8.7 0.00 0.00 0.00 72 1010.3
20260506131221 59 45 4.3 11.3 0.00 0.00 0.00 71 1010.2
20260506131020 59 341 5.2 11.3 0.00 0.00 0.00 72 1009.9
20260506130721 59 354 7.0 12.2 0.00 0.00 0.00 74 1010.2
20260506130220 58 327 7.8 15.6 0.00 0.00 0.00 73 1010.1
20260506130020 58 1 7.8 15.6 0.00 0.00 0.00 73 1009.9
20260506125720 58 353 7.8 13.9 0.00 0.00 0.00 74 1010.2
20260506125220 58 355 5.2 11.3 0.00 0.00 0.00 73 1010.1
20260506125020 58 7 5.2 13.0 0.00 0.00 0.00 74 1009.8
20260506124720 58 358 6.1 13.0 0.00 0.00 0.00 72 1010.0
20260506124220 58 326 6.1 13.0 0.00 0.00 0.00 76 1010.0
20260506124020 58 1 5.2 7.8 0.00 0.00 0.00 74 1009.8
20260506123720 58 3 6.1 11.3 0.00 0.00 0.00 74 1010.0
20260506123220 58 357 6.1 13.0 0.00 0.00 0.00 74 1010.1
20260506123020 58 349 7.0 13.0 0.00 0.00 0.00 74 1009.8
20260506122720 58 6 5.2 11.3 0.00 0.00 0.00 75 1010.1
20260506122220 58 9 7.8 13.0 0.00 0.00 0.00 75 1010.1
20260506122020 58 345 7.0 13.0 0.00 0.00 0.00 75 1009.8
20260506121720 58 342 7.0 12.2 0.00 0.00 0.00 76 1010.1
20260506121220 58 348 5.2 10.4 0.00 0.00 0.00 76 1010.1
20260506121021 57 348 7.0 10.4 0.00 0.00 0.00 75 1009.7
20260506120220 57 15 4.3 11.3 0.00 0.00 0.00 75 1010.0
20260506120021 57 356 6.1 10.4 0.00 0.00 0.00 76 1009.7
20260506115720 57 357 7.8 12.2 0.00 0.00 0.00 76 1010.0
20260506115220 57 336 7.8 13.0 0.00 0.00 0.00 75 1010.0
20260506115021 57 344 7.0 13.0 0.00 0.00 0.00 75 1009.7
20260506114720 57 4 7.0 10.4 0.00 0.00 0.00 75 1009.9
20260506114219 58 355 7.8 13.0 0.00 0.00 0.00 75 1009.9
20260506113720 58 351 5.2 12.2 0.00 0.00 0.00 73 1009.9
20260506112720 58 334 7.8 13.9 0.00 0.00 0.00 73 1009.9
20260506112020 59 346 7.8 15.6 0.00 0.00 0.00 75 1009.6
20260506111720 58 8 6.1 10.4 0.00 0.00 0.00 75 1009.9
20260506111220 58 355 4.3 13.0 0.00 0.00 0.00 76 1009.8
20260506111021 57 351 6.1 10.4 0.00 0.00 0.00 76 1009.5
20260506110220 56 10 7.8 13.9 0.00 0.00 0.00 76 1009.9
20260506105720 57 349 6.1 11.3 0.00 0.00 0.00 77 1010.0
20260506105220 56 359 6.1 12.2 0.00 0.00 0.00 77 1010.0
20260506105021 56 350 8.7 13.9 0.00 0.00 0.00 77 1009.7
20260506104020 56 16 5.2 10.4 0.00 0.00 0.00 76 1009.7
20260506103220 57 348 6.1 13.9 0.00 0.00 0.00 76 1009.9
20260506103020 57 357 5.2 12.2 0.00 0.00 0.00 77 1009.6
20260506101720 56 332 7.8 12.2 0.00 0.00 0.00 77 1009.9
20260506101020 56 355 6.1 9.6 0.00 0.00 0.00 78 1009.6
20260506100719 56 338 4.3 10.4 0.00 0.00 0.00 77 1009.8
20260506100219 56 349 5.2 12.2 0.00 0.00 0.00 78 1009.8
20260506100020 55 351 6.1 12.2 0.00 0.00 0.00 77 1009.5
20260506095720 56 356 7.8 13.9 0.00 0.00 0.00 78 1009.8
20260506095020 56 5 7.0 13.0 0.00 0.00 0.00 78 1009.5
20260506094220 55 359 7.0 11.3 0.00 0.00 0.00 78 1009.7
20260506094020 55 348 6.1 12.2 0.00 0.00 0.00 78 1009.5
20260506093720 55 351 6.1 11.3 0.00 0.00 0.00 78 1009.8
20260506093220 56 354 5.2 10.4 0.00 0.00 0.00 78 1009.8
20260506093020 56 14 5.2 7.8 0.00 0.00 0.00 78 1009.5
20260506092720 55 35 6.1 13.0 0.00 0.00 0.00 79 1009.8
20260506092220 55 353 5.2 10.4 0.00 0.00 0.00 79 1009.8
20260506092020 55 15 5.2 7.8 0.00 0.00 0.00 78 1009.5
20260506091720 55 35 4.3 11.3 0.00 0.00 0.00 79 1009.8
20260506091220 54 351 5.2 11.3 0.00 0.00 0.00 80 1009.7
20260506091020 54 1 5.2 11.3 0.00 0.00 0.00 80 1009.5
20260506090720 54 13 3.5 7.8 0.00 0.00 0.00 79 1009.8
20260506090219 54 6 6.1 10.4 0.00 0.00 0.00 80 1009.7
20260506090020 53 353 7.0 9.6 0.00 0.00 0.00 80 1009.4
20260506085720 53 8 6.1 10.4 0.00 0.00 0.00 80 1009.7
20260506085219 53 1 6.1 10.4 0.00 0.00 0.00 80 1009.6
20260506084720 53 13 4.3 7.8 0.00 0.00 0.00 80 1009.6
20260506084220 53 3 2.6 10.4 0.00 0.00 0.00 81 1009.6
20260506084019 53 5 3.5 6.1 0.00 0.00 0.00 81 1009.3
20260506083720 53 344 5.2 11.3 0.00 0.00 0.00 81 1009.6
20260506083220 52 20 3.5 7.8 0.00 0.00 0.00 81 1009.5
20260506083020 52 48 4.3 7.8 0.00 0.00 0.00 82 1009.2
20260506082720 52 18 2.6 7.8 0.00 0.00 0.00 82 1009.5
20260506082220 52 346 5.2 10.4 0.00 0.00 0.00 82 1009.4
20260506082020 52 17 5.2 9.6 0.00 0.00 0.00 83 1009.1
20260506081719 52 6 4.3 13.9 0.00 0.00 0.00 83 1009.4
20260506081220 52 357 5.2 10.4 0.00 0.00 0.00 83 1009.4
20260506081020 52 4 6.1 10.4 0.00 0.00 0.00 83 1009.1
20260506080720 52 8 4.3 7.8 0.00 0.00 0.00 83 1009.5
20260506080219 52 0 5.2 10.4 0.00 0.00 0.00 84 1009.4
20260506073219 51 37 4.3 8.7 0.00 0.00 0.00 86 1009.4
20260506073020 51 6 4.3 10.4 0.00 0.00 0.00 86 1009.0
20260506072719 50 44 2.6 7.0 0.00 0.00 0.00 86 1009.3
20260506072219 50 18 4.3 11.3 0.00 0.00 0.00 86 1009.3
20260506071719 50 30 2.6 7.8 0.00 0.00 0.00 86 1009.3
20260506071020 50 48 2.6 6.1 0.00 0.00 0.00 86 1009.0
20260506070719 50 53 4.3 8.7 0.00 0.00 0.00 86 1009.3
20260506070220 50 59 4.3 7.0 0.00 0.00 0.00 86 1009.3
20260506062019 50 53 3.5 6.1 0.00 0.00 0.00 84 1008.8
20260506061719 50 51 5.2 7.8 0.00 0.00 0.00 84 1009.1
20260506061019 50 44 4.3 7.0 0.00 0.00 0.00 83 1008.8
20260506060719 50 43 5.2 10.4 0.00 0.00 0.00 83 1009.1
20260506051220 51 24 4.3 12.2 0.00 0.00 0.00 81 1008.9
20260506051019 51 6 5.2 12.2 0.00 0.00 0.00 81 1008.6
20260506050719 51 0 2.6 8.7 0.00 0.00 0.00 81 1009.0
20260506045019 51 355 2.6 5.2 0.00 0.00 0.00 81 1008.7
20260506044719 51 355 2.6 7.0 0.00 0.00 0.00 80 1009.0
20260506044219 51 355 5.2 10.4 0.00 0.00 0.00 80 1009.0
20260506044019 51 348 3.5 9.6 0.00 0.00 0.00 80 1008.7
20260506043719 51 351 5.2 10.4 0.00 0.00 0.00 80 1009.1
20260506043219 51 3 4.3 8.7 0.00 0.00 0.00 79 1009.0
20260506043019 51 347 4.3 9.6 0.00 0.00 0.00 79 1008.7
20260506042719 51 355 2.6 8.7 0.00 0.00 0.00 79 1009.0
20260506042219 51 1 4.3 8.7 0.00 0.00 0.00 79 1009.0
20260506042019 51 25 3.5 7.0 0.00 0.00 0.00 79 1008.7
20260506041719 51 27 4.3 8.7 0.00 0.00 0.00 79 1009.0
20260506041219 51 5 4.3 10.4 0.00 0.00 0.00 79 1009.0
20260506040719 51 354 2.6 8.7 0.00 0.00 0.00 79 1009.0
20260506040219 51 344 2.6 10.4 0.00 0.00 0.00 79 1009.1
20260506040019 51 346 3.5 10.4 0.00 0.00 0.00 79 1008.8
20260506035718 51 19 4.3 8.7 0.00 0.00 0.00 79 1009.2
20260506035219 51 3 4.3 12.2 0.00 0.00 0.00 78 1009.1
20260506035020 51 8 4.3 9.6 0.00 0.00 0.00 78 1008.8
20260506034719 51 358 5.2 12.2 0.00 0.00 0.00 78 1009.1
20260506034219 50 1 3.5 6.1 0.00 0.00 0.00 77 1009.2
20260506034019 50 348 3.5 5.2 0.00 0.00 0.00 77 1008.9
20260506033719 50 331 3.5 8.7 0.00 0.00 0.00 77 1009.2
20260506033219 50 41 1.7 6.1 0.00 0.00 0.00 77 1009.2
20260506033020 50 40 3.5 6.1 0.00 0.00 0.00 77 1008.9
20260506032719 50 36 3.5 5.2 0.00 0.00 0.00 77 1009.2
20260506032219 50 38 2.6 10.4 0.00 0.00 0.00 77 1009.2
20260506032019 50 43 4.3 9.6 0.00 0.00 0.00 77 1008.9
20260506031719 50 51 5.2 7.0 0.00 0.00 0.00 77 1009.2
20260506031219 50 21 2.6 7.0 0.00 0.00 0.00 78 1009.2
20260506030718 50 355 1.7 8.7 0.00 0.00 0.00 78 1009.3
20260506030019 50 5 3.5 7.0 0.00 0.00 0.00 78 1009.0
20260506025719 50 6 3.5 8.7 0.00 0.00 0.00 78 1009.4
20260506025219 50 49 2.6 6.1 0.00 0.00 0.00 78 1009.5
20260506024719 50 18 2.6 7.0 0.00 0.00 0.00 78 1009.5
20260506024219 50 42 1.7 5.2 0.00 0.00 0.00 78 1009.5
20260506024019 50 41 2.6 6.1 0.00 0.00 0.00 78 1009.2
20260506023219 50 37 3.5 7.8 0.00 0.00 0.00 79 1009.5
20260506022718 50 40 4.3 7.8 0.00 0.00 0.00 79 1009.6
20260506022219 49 43 4.3 7.0 0.00 0.00 0.00 79 1009.6
20260506022018 49 51 3.5 7.0 0.00 0.00 0.00 79 1009.3
20260506021719 49 51 3.5 7.0 0.00 0.00 0.00 79 1009.6
20260506021219 49 49 2.6 6.1 0.00 0.00 0.00 79 1009.6
20260506021020 49 27 3.5 6.1 0.00 0.00 0.00 79 1009.2
20260506020722 49 37 2.6 5.2 0.00 0.00 0.00 79 1009.6
20260506020018 49 32 2.6 5.2 0.00 0.00 0.00 79 1009.4
20260506015719 49 32 3.5 6.1 0.00 0.00 0.00 79 1009.7
20260506015219 49 37 2.6 7.0 0.00 0.00 0.00 79 1009.7
20260506015019 49 35 4.3 7.0 0.00 0.00 0.00 79 1009.4
20260506014718 49 49 4.3 7.8 0.00 0.00 0.00 79 1009.7
20260506014219 49 41 2.6 5.2 0.00 0.00 0.00 79 1009.7
20260506014019 49 43 2.6 5.2 0.00 0.00 0.00 79 1009.5
20260506013719 49 44 3.5 7.0 0.00 0.00 0.00 79 1009.8
20260506013219 49 53 4.3 10.4 0.00 0.00 0.00 79 1009.7
20260506013019 49 50 3.5 6.1 0.00 0.00 0.00 79 1009.5
20260506012718 49 47 3.5 5.2 0.00 0.00 0.00 79 1009.7
20260506012219 49 47 4.3 6.1 0.00 0.00 0.00 79 1009.8
20260506012019 49 47 3.5 6.1 0.00 0.00 0.00 79 1009.5
20260506011719 48 43 4.3 7.0 0.00 0.00 0.00 79 1009.7
20260506011218 48 54 4.3 10.4 0.00 0.00 0.00 79 1009.7
20260506011019 48 61 3.5 7.0 0.00 0.00 0.00 79 1009.5
20260506010718 48 60 4.3 7.0 0.00 0.00 0.00 79 1009.8
20260506010218 48 53 4.3 7.8 0.00 0.00 0.00 79 1009.8
20260506010018 49 53 4.3 7.8 0.00 0.00 0.00 79 1009.5
20260506005719 48 51 4.3 7.8 0.00 0.00 0.00 79 1009.8
20260506005218 49 59 5.2 7.8 0.00 0.00 0.00 79 1009.9
20260506005019 49 58 5.2 8.7 0.00 0.00 0.00 78 1009.6
20260506004718 49 53 4.3 7.8 0.00 0.00 0.00 79 1009.9
20260506004218 49 53 4.3 8.7 0.00 0.00 0.00 79 1009.9
20260506003719 49 55 4.3 7.8 0.00 0.00 0.00 79 1009.9
20260506003218 49 45 4.3 8.7 0.00 0.00 0.00 79 1010.0
20260506003019 49 44 4.3 8.7 0.00 0.00 0.00 79 1009.7
20260506002719 49 58 3.5 8.7 0.00 0.00 0.00 79 1010.1
20260506002219 49 51 3.5 7.8 0.00 0.00 0.00 79 1010.1
20260506002019 49 51 5.2 7.8 0.00 0.00 0.00 78 1009.8
20260506001719 49 54 4.3 7.8 0.00 0.00 0.00 78 1010.1
20260506001218 49 53 5.2 7.8 0.00 0.00 0.00 78 1010.2
20260506001019 49 49 5.2 7.8 0.00 0.00 0.00 78 1009.9
20260506000719 49 60 3.5 8.7 0.00 0.00 0.00 78 1010.2
20260506000019 49 57 4.3 6.1 0.00 0.00 0.00 78 1009.9
20260505235718 49 57 2.6 5.2 0.00 0.00 0.00 78 1010.2
20260505235219 49 60 4.3 6.1 0.00 0.00 0.00 78 1010.2
20260505235019 49 61 3.5 5.2 0.00 0.00 0.00 78 1009.9
20260505234718 49 60 3.5 7.0 0.00 0.00 0.00 78 1010.2
20260505234019 49 61 3.5 6.1 0.00 0.00 0.00 78 1009.9
20260505233719 49 59 3.5 6.1 0.00 0.00 0.00 78 1010.3
20260505233219 49 58 3.5 7.0 0.00 0.00 0.00 78 1010.3
20260505233018 49 54 3.5 5.2 0.00 0.00 0.00 78 1010.1
20260505232718 49 55 5.2 7.0 0.00 0.00 0.00 78 1010.3
20260505232219 49 57 5.2 7.0 0.00 0.00 0.00 78 1010.3
20260505231718 49 61 4.3 7.8 0.00 0.00 0.00 78 1010.3
20260505231218 49 57 5.2 7.8 0.00 0.00 0.00 78 1010.3
20260505231018 49 59 4.3 7.0 0.00 0.00 0.00 78 1010.1
20260505230718 49 57 4.3 10.4 0.00 0.00 0.00 78 1010.3
20260505230018 49 54 4.3 7.0 0.00 0.00 0.00 78 1010.1
20260505225719 50 56 5.2 7.0 0.00 0.00 0.00 78 1010.4
20260505225219 50 57 5.2 7.8 0.00 0.00 0.00 77 1010.4
20260505225019 50 53 5.2 7.8 0.00 0.00 0.00 77 1010.1
20260505224719 50 51 4.3 8.7 0.00 0.00 0.00 77 1010.4
20260505224218 50 54 4.3 8.7 0.00 0.00 0.00 77 1010.5
20260505224018 50 56 4.3 6.1 0.00 0.00 0.00 77 1010.1
20260505223718 50 59 6.1 10.4 0.00 0.00 0.00 77 1010.5
20260505223218 50 56 6.1 8.7 0.00 0.00 0.00 77 1010.5
20260505223019 50 57 7.0 9.6 0.00 0.00 0.00 77 1010.2
20260505222718 50 64 4.3 7.8 0.00 0.00 0.00 77 1010.5
20260505222218 50 53 5.2 7.8 0.00 0.00 0.00 77 1010.5
20260505222019 50 60 5.2 7.8 0.00 0.00 0.00 77 1010.2
20260505221718 50 58 5.2 7.0 0.00 0.00 0.00 78 1010.5
20260505221218 50 56 6.1 8.7 0.00 0.00 0.00 78 1010.5
20260505221019 50 57 6.1 8.7 0.00 0.00 0.00 78 1010.3
20260505220718 50 43 4.3 7.8 0.00 0.00 0.00 78 1010.6
20260505220219 50 55 6.1 7.8 0.00 0.00 0.00 78 1010.5
20260505220019 50 51 6.1 8.7 0.00 0.00 0.00 78 1010.2
20260505215718 50 56 7.0 10.4 0.00 0.00 0.00 79 1010.5
20260505215219 50 56 6.1 8.7 0.00 0.00 0.00 79 1010.5
20260505215018 51 60 5.2 8.7 0.00 0.00 0.00 79 1010.2
20260505214718 51 60 6.1 7.8 0.00 0.00 0.00 79 1010.5
20260505214218 51 57 6.1 10.4 0.00 0.00 0.00 79 1010.6
20260505214019 51 56 5.2 7.0 0.00 0.00 0.00 79 1010.2
20260505213718 51 57 5.2 7.8 0.00 0.00 0.00 79 1010.6
20260505213219 51 54 4.3 7.8 0.00 0.00 0.00 79 1010.6
20260505213018 51 56 4.3 7.0 0.00 0.00 0.00 79 1010.3
20260505212718 51 52 5.2 7.0 0.00 0.00 0.00 79 1010.6
20260505212218 51 53 6.1 10.4 0.00 0.00 0.00 79 1010.6
20260505212018 51 57 6.1 9.6 0.00 0.00 0.00 79 1010.3
20260505211718 51 64 5.2 7.8 0.00 0.00 0.00 79 1010.6
20260505211218 51 52 5.2 8.7 0.00 0.00 0.00 79 1010.6
20260505210718 51 58 5.2 8.7 0.00 0.00 0.00 79 1010.6
20260505210218 52 47 5.2 10.4 0.00 0.00 0.00 78 1010.6
20260505210018 52 56 6.1 10.4 0.00 0.00 0.00 78 1010.2
20260505205718 52 58 5.2 10.4 0.00 0.00 0.00 78 1010.6
20260505205218 52 48 5.2 8.7 0.00 0.00 0.00 78 1010.7
20260505205019 52 51 5.2 7.0 0.00 0.00 0.00 78 1010.4
20260505204718 52 54 5.2 7.8 0.00 0.00 0.00 79 1010.7
20260505204218 52 48 5.2 8.7 0.00 0.00 0.00 79 1010.7
20260505204019 52 53 6.1 8.7 0.00 0.00 0.00 79 1010.4
20260505203718 52 47 6.1 8.7 0.00 0.00 0.00 78 1010.6
20260505203218 52 52 5.2 8.7 0.00 0.00 0.00 78 1010.6
20260505203018 52 52 5.2 8.7 0.00 0.00 0.00 78 1010.3
20260505202717 52 48 6.1 8.7 0.00 0.00 0.00 78 1010.6
20260505201718 52 55 5.2 8.7 0.00 0.00 0.00 78 1010.6
20260505201218 52 52 5.2 7.8 0.00 0.00 0.00 78 1010.5
20260505201018 52 53 4.3 7.8 0.00 0.00 0.00 78 1010.2
20260505200718 52 51 5.2 10.4 0.00 0.00 0.00 78 1010.5
20260505200218 52 41 4.3 8.7 0.00 0.00 0.00 78 1010.5
20260505200018 52 43 5.2 7.0 0.00 0.00 0.00 78 1010.2
20260505195719 53 46 5.2 8.7 0.00 0.00 0.00 77 1010.5
20260505195218 53 57 4.3 7.0 0.00 0.00 0.00 77 1010.4
20260505195018 53 39 4.3 7.0 0.00 0.00 0.00 77 1010.1
20260505194718 53 43 5.2 10.4 0.00 0.00 0.00 77 1010.4
20260505194218 53 55 5.2 8.7 0.00 0.00 0.00 77 1010.4
20260505194018 53 57 5.2 7.8 0.00 0.00 0.00 77 1010.1
20260505193718 53 46 5.2 8.7 0.00 0.00 0.00 77 1010.4
20260505191721 53 38 4.3 7.8 0.00 0.00 0.00 76 1010.3
20260505191220 53 40 5.2 7.8 0.00 0.00 0.00 76 1010.2
20260505190721 53 50 5.2 8.7 0.00 0.00 0.00 76 1010.2
20260505190220 53 53 5.2 7.8 0.00 0.00 0.00 76 1010.2
20260505185721 53 32 4.3 8.7 0.00 0.00 0.00 75 1010.2